| time (UTC) | temp F | wind direction | speed MPH | gust MPH | rain 1hr in | rain 24hr in | rain mn in | humidity % | barometer mb |
| 20260905213102 | 80 | 248 | 7.0 | 12.0 | 0.00 | 0.00 | 0.00 | 66 | 1012.6 |
| 20260905211557 | 81 | 257 | 8.0 | 13.0 | 0.00 | 0.00 | 0.00 | 65 | 1012.6 |
| 20260905210056 | 80 | 269 | 7.0 | 13.0 | 0.00 | 0.00 | 0.00 | 70 | 1012.7 |
| 20260905204555 | 80 | 269 | 5.0 | 13.0 | 0.00 | 0.00 | 0.00 | 71 | 1012.7 |
| 20260905203059 | 80 | 281 | 8.0 | 13.0 | 0.00 | 0.00 | 0.00 | 68 | 1012.9 |
| 20260905201553 | 81 | 256 | 6.0 | 13.0 | 0.00 | 0.00 | 0.00 | 69 | 1013.0 |
| 20260905200056 | 80 | 261 | 6.0 | 12.0 | 0.00 | 0.00 | 0.00 | 70 | 1013.2 |
| 20260905194552 | 81 | 274 | 7.0 | 12.0 | 0.00 | 0.00 | 0.00 | 70 | 1013.4 |
| 20260905193051 | 81 | 257 | 5.0 | 11.0 | 0.00 | 0.00 | 0.00 | 70 | 1013.6 |
| 20260905191550 | 81 | 227 | 4.0 | 10.0 | 0.00 | 0.00 | 0.00 | 70 | 1013.8 |
| 20260905190055 | 81 | 277 | 3.0 | 10.0 | 0.00 | 0.00 | 0.00 | 69 | 1014.0 |
| 20260905184556 | 81 | 227 | 3.0 | 10.0 | 0.00 | 0.00 | 0.00 | 69 | 1014.1 |
| 20260905183050 | 80 | 217 | 3.0 | 11.0 | 0.00 | 0.00 | 0.00 | 71 | 1014.2 |
| 20260905181542 | 79 | 302 | 3.0 | 8.0 | 0.00 | 0.00 | 0.00 | 71 | 1014.0 |
| 20260905180040 | 79 | 219 | 3.0 | 7.0 | 0.00 | 0.00 | 0.00 | 72 | 1014.1 |
| 20260905174539 | 78 | 279 | 2.0 | 9.0 | 0.00 | 0.00 | 0.00 | 74 | 1014.1 |
| 20260905173038 | 78 | 259 | 3.0 | 8.0 | 0.00 | 0.00 | 0.00 | 74 | 1014.1 |
| 20260905171538 | 78 | 278 | 1.0 | 7.0 | 0.00 | 0.00 | 0.00 | 75 | 1014.1 |
| 20260905170038 | 77 | 275 | 2.0 | 6.0 | 0.00 | 0.00 | 0.00 | 75 | 1014.2 |
| 20260905164537 | 77 | 285 | 1.0 | 6.0 | 0.00 | 0.00 | 0.00 | 77 | 1014.2 |
| 20260905163033 | 76 | 271 | 1.0 | 7.0 | 0.00 | 0.00 | 0.00 | 78 | 1014.1 |
| 20260905161531 | 77 | 280 | 1.0 | 4.0 | 0.00 | 0.00 | 0.00 | 77 | 1014.0 |
| 20260905160026 | 75 | 302 | 0.0 | 0.0 | 0.00 | 0.00 | 0.00 | 78 | 1014.0 |
| 20260905154522 | 74 | 300 | 0.0 | 0.0 | 0.00 | 0.00 | 0.00 | 81 | 1013.9 |
| 20260905153022 | 72 | 34 | 1.0 | 3.0 | 0.00 | 0.00 | 0.00 | 83 | 1013.6 |
| 20260905151512 | 70 | 29 | 0.0 | 0.0 | 0.00 | 0.00 | 0.00 | 88 | 1013.7 |
| 20260905150008 | 68 | 29 | 0.0 | 0.0 | 0.00 | 0.00 | 0.00 | 94 | 1013.6 |
| 20260905144506 | 65 | 30 | 0.0 | 0.0 | 0.00 | 0.00 | 0.00 | 96 | 1013.4 |
| 20260905143013 | 63 | 289 | 0.0 | 0.0 | 0.00 | 0.00 | 0.00 | 96 | 1013.3 |
| 20260905141503 | 61 | 289 | 0.0 | 0.0 | 0.00 | 0.00 | 0.00 | 95 | 1013.1 |
| 20260905140004 | 61 | 289 | 0.0 | 0.0 | 0.00 | 0.00 | 0.00 | 94 | 1013.0 |
| 20260905134505 | 61 | 289 | 0.0 | 0.0 | 0.00 | 0.00 | 0.00 | 94 | 1013.0 |
| 20260905133001 | 62 | 289 | 0.0 | 0.0 | 0.00 | 0.00 | 0.00 | 94 | 1012.8 |
| 20260905131610 | 62 | 289 | 0.0 | 0.0 | 0.00 | 0.00 | 0.00 | 94 | 1012.7 |
| 20260905130100 | 62 | 289 | 0.0 | 0.0 | 0.00 | 0.00 | 0.00 | 94 | 1012.6 |
| 20260905124558 | 62 | 289 | 0.0 | 0.0 | 0.00 | 0.00 | 0.00 | 94 | 1012.6 |
| 20260905123058 | 63 | 289 | 0.0 | 0.0 | 0.00 | 0.00 | 0.00 | 94 | 1012.5 |
| 20260905121554 | 63 | 289 | 0.0 | 0.0 | 0.00 | 0.00 | 0.00 | 94 | 1012.6 |
| 20260905120105 | 63 | 289 | 0.0 | 0.0 | 0.00 | 0.00 | 0.00 | 94 | 1012.6 |
| 20260905114554 | 63 | 289 | 0.0 | 0.0 | 0.00 | 0.00 | 0.00 | 94 | 1012.7 |
| 20260905113052 | 63 | 289 | 0.0 | 0.0 | 0.00 | 0.00 | 0.00 | 93 | 1012.6 |
| 20260905111606 | 64 | 289 | 0.0 | 0.0 | 0.00 | 0.00 | 0.00 | 94 | 1012.6 |
| 20260905110054 | 64 | 289 | 0.0 | 0.0 | 0.00 | 0.00 | 0.00 | 94 | 1012.8 |
| 20260905104547 | 64 | 289 | 0.0 | 0.0 | 0.00 | 0.00 | 0.00 | 94 | 1012.8 |
| 20260905103047 | 64 | 289 | 0.0 | 0.0 | 0.00 | 0.00 | 0.00 | 93 | 1012.8 |
| 20260905101548 | 64 | 289 | 0.0 | 0.0 | 0.00 | 0.00 | 0.00 | 93 | 1012.8 |
| 20260905100046 | 65 | 289 | 0.0 | 0.0 | 0.00 | 0.00 | 0.00 | 93 | 1012.9 |
| 20260905094544 | 65 | 289 | 0.0 | 0.0 | 0.00 | 0.00 | 0.00 | 93 | 1012.9 |
| 20260905093043 | 65 | 289 | 0.0 | 0.0 | 0.00 | 0.00 | 0.00 | 93 | 1012.8 |
| 20260905091541 | 65 | 289 | 0.0 | 0.0 | 0.00 | 0.00 | 0.00 | 92 | 1012.9 |
| 20260905090040 | 65 | 289 | 0.0 | 0.0 | 0.00 | 0.00 | 0.00 | 93 | 1013.0 |
| 20260905084539 | 65 | 289 | 0.0 | 0.0 | 0.00 | 0.00 | 0.00 | 92 | 1013.0 |
| 20260905083037 | 65 | 289 | 0.0 | 0.0 | 0.00 | 0.00 | 0.00 | 91 | 1013.0 |
| 20260905081535 | 66 | 289 | 0.0 | 0.0 | 0.00 | 0.00 | 0.00 | 92 | 1013.1 |
| 20260905080033 | 66 | 289 | 0.0 | 0.0 | 0.00 | 0.00 | 0.00 | 92 | 1013.2 |
| 20260905074532 | 66 | 289 | 0.0 | 0.0 | 0.00 | 0.00 | 0.00 | 91 | 1013.2 |
| 20260905073041 | 67 | 289 | 0.0 | 0.0 | 0.00 | 0.00 | 0.00 | 91 | 1013.2 |
| 20260905071539 | 67 | 289 | 0.0 | 0.0 | 0.00 | 0.00 | 0.00 | 91 | 1013.2 |
| 20260905070027 | 67 | 289 | 0.0 | 0.0 | 0.00 | 0.00 | 0.00 | 90 | 1013.2 |
| 20260905064527 | 67 | 289 | 0.0 | 0.0 | 0.00 | 0.00 | 0.00 | 89 | 1013.0 |
| 20260905063027 | 68 | 289 | 0.0 | 0.0 | 0.00 | 0.00 | 0.00 | 89 | 1013.0 |
| 20260905061529 | 68 | 289 | 0.0 | 0.0 | 0.00 | 0.00 | 0.00 | 87 | 1013.0 |
| 20260905060026 | 68 | 289 | 0.0 | 0.0 | 0.00 | 0.00 | 0.00 | 87 | 1013.0 |
| 20260905054539 | 69 | 289 | 0.0 | 0.0 | 0.00 | 0.00 | 0.00 | 86 | 1012.9 |
| 20260905053025 | 70 | 289 | 0.0 | 0.0 | 0.00 | 0.00 | 0.00 | 86 | 1012.9 |
| 20260905051525 | 70 | 289 | 0.0 | 0.0 | 0.00 | 0.00 | 0.00 | 86 | 1012.9 |
| 20260905050025 | 70 | 289 | 0.0 | 4.0 | 0.00 | 0.00 | 0.00 | 86 | 1012.9 |
| 20260905044523 | 71 | 289 | 3.0 | 7.0 | 0.00 | 0.00 | 0.00 | 86 | 1012.7 |
| 20260905043027 | 71 | 282 | 1.0 | 7.0 | 0.00 | 0.00 | 0.00 | 85 | 1012.7 |
| 20260905041522 | 71 | 283 | 4.0 | 9.0 | 0.00 | 0.00 | 0.00 | 85 | 1012.5 |
| 20260905040023 | 71 | 269 | 6.0 | 9.0 | 0.00 | 0.00 | 0.00 | 85 | 1012.3 |
| 20260905034521 | 72 | 264 | 6.0 | 8.0 | 0.00 | 0.00 | 0.00 | 85 | 1012.2 |
| 20260905033020 | 72 | 276 | 3.0 | 10.0 | 0.00 | 0.00 | 0.00 | 86 | 1012.0 |
| 20260905031520 | 72 | 246 | 5.0 | 9.0 | 0.00 | 0.00 | 0.00 | 85 | 1011.9 |
| 20260905030019 | 72 | 263 | 6.0 | 10.0 | 0.00 | 0.00 | 0.00 | 85 | 1011.7 |
| 20260905024518 | 72 | 283 | 4.0 | 10.0 | 0.00 | 0.00 | 0.00 | 84 | 1011.6 |
| 20260905023020 | 72 | 277 | 4.0 | 8.0 | 0.00 | 0.00 | 0.00 | 84 | 1011.6 |
| 20260905021516 | 72 | 231 | 2.0 | 6.0 | 0.00 | 0.00 | 0.00 | 83 | 1011.7 |
| 20260905020015 | 73 | 222 | 1.0 | 8.0 | 0.00 | 0.00 | 0.00 | 81 | 1011.9 |
| 20260905014513 | 73 | 265 | 0.0 | 6.0 | 0.00 | 0.00 | 0.00 | 79 | 1011.9 |
| 20260905013013 | 74 | 259 | 3.0 | 8.0 | 0.00 | 0.00 | 0.00 | 78 | 1011.9 |
| 20260905011511 | 76 | 244 | 3.0 | 9.0 | 0.00 | 0.00 | 0.00 | 74 | 1011.9 |
| 20260905010012 | 76 | 272 | 3.0 | 8.0 | 0.00 | 0.00 | 0.00 | 73 | 1012.1 |
| 20260905004510 | 77 | 260 | 5.0 | 9.0 | 0.00 | 0.00 | 0.00 | 71 | 1012.1 |
| 20260905003009 | 77 | 275 | 4.0 | 8.0 | 0.00 | 0.00 | 0.00 | 71 | 1012.2 |
| 20260905001509 | 78 | 256 | 3.0 | 7.0 | 0.00 | 0.00 | 0.00 | 70 | 1012.2 |
| 20260905000008 | 78 | 221 | 3.0 | 9.0 | 0.00 | 0.00 | 0.00 | 70 | 1012.3 |
| 20260904234507 | 78 | 254 | 4.0 | 11.0 | 0.00 | 0.00 | 0.00 | 70 | 1012.2 |
| 20260904233007 | 78 | 192 | 5.0 | 9.0 | 0.00 | 0.00 | 0.00 | 70 | 1012.2 |
| 20260904231507 | 78 | 205 | 6.0 | 11.0 | 0.00 | 0.00 | 0.00 | 70 | 1012.2 |
| 20260904230005 | 78 | 213 | 5.0 | 10.0 | 0.00 | 0.00 | 0.00 | 70 | 1012.3 |
| 20260904224505 | 78 | 196 | 5.0 | 10.0 | 0.00 | 0.00 | 0.00 | 69 | 1012.4 |
| 20260904223004 | 79 | 223 | 5.0 | 10.0 | 0.00 | 0.00 | 0.00 | 68 | 1012.5 |
| 20260904221502 | 79 | 219 | 4.0 | 11.0 | 0.00 | 0.00 | 0.00 | 68 | 1012.5 |
| 20260904220003 | 78 | 250 | 4.0 | 10.0 | 0.00 | 0.00 | 0.00 | 70 | 1012.5 |
| 20260904214501 | 78 | 240 | 4.0 | 11.0 | 0.00 | 0.00 | 0.00 | 70 | 1012.5 |